Location: The Saddle
(36.8333°N, 80.3417°W)
Time: 17:13:46
(UTC-05:00)

A-11 Canister half - Pass Details

Date: 12 December 2023
Orbit: 1514 x 1685 km, 47.2° (Epoch: 02 November)

Event Time Altitude Azimuth Distance (km) Brightness Sun altitude
Rises 04:10:56 0° 301° (WNW) 4,818 - -37.9°
Reaches altitude 10° 04:14:01 10° 303° (WNW) 3,853 - -37.3°
Exits shadow 04:22:52 73° 330° (NNW) 1,720 9.0 -35.5°
Maximum altitude 04:23:58 82° 32° (NNE) 1,678 9.0 -35.3°
Drops below altitude 10° 04:34:09 10° 120° (ESE) 3,940 11.8 -33.3°
Sets 04:37:20 0° 121° (ESE) 4,931 12.5 -32.6°
